sat.trackr.live / text

‹ back to catalog

QIANFAN-98

NORAD 66040 · 2025-233H

PAYLOAD ACTIVE UNKNOWN

§ Identity

Operator
Country
PRC
Launch date
2025-10-17
Launch site
TAISC
Launch vehicle
Mass (kg)
RCS (m²)

External: N2YO · Heavens-Above · Gunter

§ Orbital elements

Epoch: 2026-09-20T09:44:48.931296Z

Period
106.59 min
Inclination
89.0049°
Eccentricity
0.0001651
Mean motion
13.51029391 rev/d
Perigee alt
1,067.2 km
Apogee alt
1,069.7 km
Semi-major
7,446.6 km
B*
1.0045e-4
RAAN
33.2875°
Arg perigee
113.3799°
Mean anomaly
246.7526°
Rev number
4,618

§ Raw data

QIANFAN-981 66040U 25233H   26263.40612189  .00000077  00000+0  10045-3 0  99972 66040  89.0049  33.2875 0001651 113.3799 246.7526 13.51029391 46187

JSON: /api/v1/satellites/66040 · /tle

For live sub-satellite position, see the globe view (requires WebGL).

§ Visibility from observer

Set your observer location to see the next 7 days of passes ≥ 10°. The values pass through the URL so the page stays shareable.

No JS? Fill the form by hand. The geolocation button needs JavaScript.